Hourly Data Report for June 20, 2020

BORDEN AWOS
ONTARIO
Current Station Operator: DND

44°16'20.000" N
79°54'42.000" W
222.50 m
611B002
71534
YBN

Download Data

Hourly Data (June 2020)
Hourly Data Report for June 20, 2020
TIME
LST
Temp Definition
°C
Dew Point Definition
°C
Rel Hum Definition
%
Precip. Amount Definition
mm

Wind Dir Definition
10's deg

Wind Spd Definition
km/h
Visibility Definition
km
Stn Press Definition
kPa
Hmdx Definition


Wind Chill Definition


Weather Definition


00:00 14.6 13.0 90   19 4 14.5 99.03     LegendNANA
01:00 13.9 12.7 93     0 14.5 99.04     LegendNANA
02:00 13.2 12.1 93     0 14.5 99.05     LegendNANA
03:00 12.5 11.7 95     0 14.5 99.04     LegendNANA
04:00 12.3 11.7 96   23 4 14.5 99.06     LegendNANA
05:00 12.0 11.3 96   28 6 12.9 99.07     LegendNANA
06:00 15.9 14.1 89     0 14.5 99.09     LegendNANA
07:00 20.7 14.6 68     0 14.5 99.09     LegendNANA
08:00 25.2 12.5 45     0 14.5 99.09 28   LegendNANA
09:00 26.3 12.8 43   13 4 14.5 99.06 29   LegendNANA
10:00 28.2 13.5 41   13 7 14.5 99.05 31   LegendNANA
11:00 28.9 13.9 40   22 7 14.5 99.05 32   LegendNANA
12:00 30.6 14.7 38   27 6 14.5 99.00 34   LegendNANA
13:00 29.9 15.4 42   27 11 14.5 98.96 34   LegendNANA
14:00 30.7 15.0 39   29 9 14.5 98.91 35   LegendNANA
15:00 30.6 15.1 39   2 9 14.5 98.86 35   LegendNANA
16:00 31.2 14.2 36   1 15 14.5 98.80 35   LegendNANA
17:00 30.4 13.3 35   1 9 14.5 98.77 33   LegendNANA
18:00 29.6 13.1 36   35 7 14.5 98.76 32   LegendNANA
19:00 28.9 13.9 40   36 6 14.5 98.73 32   LegendNANA
20:00 25.2 15.8 56   31 4 14.5 98.73 30   LegendNANA
21:00 22.0 16.6 71     0 14.5 98.77 27   LegendNANA
22:00 21.4 16.2 72     0 14.5 98.78 26   LegendNANA
23:00 20.8 16.8 78   14 11 14.5 98.77 26   LegendNANA

Notes on Data Quality.

Legend

  • E = Estimated
  • M = Missing
  • NA = Not Available*
  • [empty] = Indicates an unobserved value
Date modified: